| time (UTC) | temp C | wind direction | speed KPH | gust KPH | rain 1hr cm | rain 24hr cm | rain mn cm | humidity % | barometer mb |
| 20260502224525 | 17 | 204 | 6.4 | 17.7 | 0.00 | 0.00 | 0.00 | 33 | 1013.0 |
| 20260502224007 | 17 | 217 | 8.0 | 16.1 | 0.00 | 0.00 | 0.00 | 32 | 1013.0 |
| 20260502223511 | 17 | 217 | 8.0 | 16.1 | 0.00 | 0.00 | 0.00 | 32 | 1013.1 |
| 20260502223026 | 17 | 250 | 6.4 | 20.9 | 0.00 | 0.00 | 0.00 | 32 | 1013.1 |
| 20260502222507 | 17 | 169 | 4.8 | 20.9 | 0.00 | 0.00 | 0.00 | 33 | 1013.1 |
| 20260502221507 | 17 | 211 | 4.8 | 16.1 | 0.00 | 0.00 | 0.00 | 33 | 1013.0 |
| 20260502221003 | 17 | 223 | 8.0 | 16.1 | 0.00 | 0.00 | 0.00 | 32 | 1013.1 |
| 20260502220015 | 17 | 238 | 8.0 | 16.1 | 0.00 | 0.00 | 0.00 | 33 | 1013.3 |
| 20260502215004 | 17 | 301 | 8.0 | 20.9 | 0.00 | 0.00 | 0.00 | 32 | 1013.4 |
| 20260502214007 | 17 | 332 | 8.0 | 16.1 | 0.00 | 0.00 | 0.00 | 32 | 1013.5 |
| 20260502213507 | 17 | 238 | 8.0 | 16.1 | 0.00 | 0.00 | 0.00 | 31 | 1013.6 |
| 20260502213023 | 17 | 311 | 3.2 | 19.3 | 0.00 | 0.00 | 0.00 | 32 | 1013.6 |
| 20260502212508 | 17 | 301 | 8.0 | 19.3 | 0.00 | 0.00 | 0.00 | 31 | 1013.7 |
| 20260502212008 | 17 | 242 | 6.4 | 20.9 | 0.00 | 0.00 | 0.00 | 34 | 1013.7 |
| 20260502211528 | 17 | 289 | 4.8 | 20.9 | 0.00 | 0.00 | 0.00 | 33 | 1013.8 |
| 20260502211008 | 17 | 243 | 3.2 | 16.1 | 0.00 | 0.00 | 0.00 | 34 | 1013.8 |
| 20260502210505 | 16 | 200 | 3.2 | 12.9 | 0.00 | 0.00 | 0.00 | 32 | 1013.9 |
| 20260502210010 | 17 | 235 | 6.4 | 12.9 | 0.00 | 0.00 | 0.00 | 32 | 1014.0 |
| 20260502205505 | 17 | 283 | 0.0 | 25.7 | 0.00 | 0.00 | 0.00 | 33 | 1014.0 |
| 20260502204517 | 16 | 235 | 12.9 | 24.1 | 0.00 | 0.00 | 0.00 | 34 | 1014.3 |
| 20260502203508 | 16 | 243 | 3.2 | 19.3 | 0.00 | 0.00 | 0.00 | 32 | 1014.4 |
| 20260502202507 | 16 | 218 | 12.9 | 24.1 | 0.00 | 0.00 | 0.00 | 33 | 1014.5 |
| 20260502201521 | 16 | 224 | 9.7 | 14.5 | 0.00 | 0.00 | 0.00 | 31 | 1014.8 |
| 20260502201014 | 16 | 224 | 4.8 | 12.9 | 0.00 | 0.00 | 0.00 | 33 | 1014.7 |
| 20260502200512 | 16 | 257 | 3.2 | 8.0 | 0.00 | 0.00 | 0.00 | 32 | 1014.9 |
| 20260502200028 | 15 | 262 | 3.2 | 17.7 | 0.00 | 0.00 | 0.00 | 34 | 1015.1 |
| 20260502195511 | 15 | 341 | 6.4 | 17.7 | 0.00 | 0.00 | 0.00 | 31 | 1015.2 |
| 20260502195004 | 15 | 295 | 8.0 | 27.4 | 0.00 | 0.00 | 0.00 | 33 | 1015.3 |
| 20260502194514 | 15 | 303 | 6.4 | 27.4 | 0.00 | 0.00 | 0.00 | 31 | 1015.4 |
| 20260502194003 | 15 | 235 | 12.9 | 27.4 | 0.00 | 0.00 | 0.00 | 31 | 1015.3 |
| 20260502193503 | 15 | 219 | 8.0 | 17.7 | 0.00 | 0.00 | 0.00 | 32 | 1015.4 |
| 20260502192505 | 15 | 278 | 6.4 | 16.1 | 0.00 | 0.00 | 0.00 | 31 | 1015.7 |
| 20260502192012 | 15 | 334 | 6.4 | 17.7 | 0.00 | 0.00 | 0.00 | 34 | 1015.8 |
| 20260502191520 | 15 | 238 | 8.0 | 17.7 | 0.00 | 0.00 | 0.00 | 32 | 1015.8 |
| 20260502190511 | 15 | 248 | 9.7 | 24.1 | 0.00 | 0.00 | 0.00 | 32 | 1016.0 |
| 20260502190028 | 15 | 248 | 14.5 | 24.1 | 0.00 | 0.00 | 0.00 | 31 | 1016.1 |
| 20260502185508 | 14 | 230 | 4.8 | 22.5 | 0.00 | 0.00 | 0.00 | 38 | 1016.0 |
| 20260502185011 | 14 | 316 | 6.4 | 22.5 | 0.00 | 0.00 | 0.00 | 35 | 1016.2 |
| 20260502184527 | 14 | 240 | 6.4 | 14.5 | 0.00 | 0.00 | 0.00 | 33 | 1016.3 |
| 20260502184010 | 14 | 226 | 3.2 | 17.7 | 0.00 | 0.00 | 0.00 | 36 | 1016.4 |
| 20260502183504 | 14 | 258 | 6.4 | 17.7 | 0.00 | 0.00 | 0.00 | 35 | 1016.5 |
| 20260502182506 | 13 | 319 | 6.4 | 20.9 | 0.00 | 0.00 | 0.00 | 34 | 1016.7 |
| 20260502182006 | 13 | 273 | 11.3 | 27.4 | 0.00 | 0.00 | 0.00 | 35 | 1016.8 |
| 20260502181521 | 13 | 277 | 12.9 | 27.4 | 0.00 | 0.00 | 0.00 | 35 | 1016.9 |
| 20260502181007 | 13 | 239 | 9.7 | 20.9 | 0.00 | 0.00 | 0.00 | 36 | 1016.8 |
| 20260502180506 | 13 | 255 | 6.4 | 20.9 | 0.00 | 0.00 | 0.00 | 36 | 1016.9 |
| 20260502170510 | 12 | 256 | 4.8 | 20.9 | 0.00 | 0.00 | 0.00 | 36 | 1017.8 |
| 20260502164010 | 12 | 298 | 4.8 | 24.1 | 0.00 | 0.00 | 0.00 | 39 | 1018.0 |
| 20260502163508 | 12 | 232 | 9.7 | 19.3 | 0.00 | 0.00 | 0.00 | 36 | 1018.0 |
| 20260502163035 | 12 | 294 | 9.7 | 17.7 | 0.00 | 0.00 | 0.00 | 37 | 1018.0 |
| 20260502162508 | 12 | 294 | 3.2 | 17.7 | 0.00 | 0.00 | 0.00 | 39 | 1018.1 |
| 20260502162008 | 12 | 197 | 6.4 | 17.7 | 0.00 | 0.00 | 0.00 | 37 | 1018.2 |
| 20260502161534 | 12 | 310 | 4.8 | 14.5 | 0.00 | 0.00 | 0.00 | 38 | 1018.1 |
| 20260502161012 | 12 | 232 | 8.0 | 16.1 | 0.00 | 0.00 | 0.00 | 38 | 1018.2 |
| 20260502160513 | 12 | 248 | 6.4 | 16.1 | 0.00 | 0.00 | 0.00 | 38 | 1018.2 |
| 20260502152011 | 11 | 347 | 6.4 | 14.5 | 0.00 | 0.00 | 0.00 | 41 | 1018.4 |
| 20260502151511 | 11 | 248 | 6.4 | 16.1 | 0.00 | 0.00 | 0.00 | 40 | 1018.5 |
| 20260502151005 | 11 | 276 | 8.0 | 16.1 | 0.00 | 0.00 | 0.00 | 40 | 1018.5 |
| 20260502150503 | 11 | 127 | 6.4 | 14.5 | 0.00 | 0.00 | 0.00 | 43 | 1018.5 |
| 20260502130508 | 3 | 65 | 0.0 | 1.6 | 0.00 | 0.00 | 0.00 | 70 | 1018.9 |
| 20260502123509 | 1 | 8 | 0.0 | 0.0 | 0.00 | 0.00 | 0.00 | 78 | 1019.0 |
| 20260502123042 | 1 | 11 | 0.0 | 0.0 | 0.00 | 0.00 | 0.00 | 80 | 1019.0 |
| 20260502122508 | 0 | 310 | 0.0 | 0.0 | 0.00 | 0.00 | 0.00 | 81 | 1018.9 |
| 20260502122017 | 0 | 27 | 0.0 | 0.0 | 0.00 | 0.00 | 0.00 | 82 | 1019.0 |
| 20260502121526 | 0 | 27 | 0.0 | 0.0 | 0.00 | 0.00 | 0.00 | 83 | 1018.9 |
| 20260502121007 | 0 | 27 | 0.0 | 0.0 | 0.00 | 0.00 | 0.00 | 84 | 1018.9 |
| 20260502120507 | 0 | 27 | 0.0 | 0.0 | 0.00 | 0.00 | 0.00 | 86 | 1018.9 |
| 20260502115510 | -1 | 27 | 0.0 | 0.0 | 0.00 | 0.00 | 0.00 | 85 | 1018.9 |
| 20260502115011 | -1 | 27 | 0.0 | 0.0 | 0.00 | 0.00 | 0.00 | 86 | 1018.9 |
| 20260502114526 | -1 | 27 | 0.0 | 0.0 | 0.00 | 0.00 | 0.00 | 86 | 1018.9 |
| 20260502114008 | -1 | 27 | 0.0 | 0.0 | 0.00 | 0.00 | 0.00 | 86 | 1018.9 |
| 20260502113509 | -1 | 27 | 0.0 | 0.0 | 0.00 | 0.00 | 0.00 | 86 | 1018.9 |
| 20260502113026 | -1 | 27 | 0.0 | 0.0 | 0.00 | 0.00 | 0.00 | 86 | 1018.9 |
| 20260502112509 | -1 | 27 | 0.0 | 0.0 | 0.00 | 0.00 | 0.00 | 86 | 1018.8 |
| 20260502112003 | -1 | 27 | 0.0 | 0.0 | 0.00 | 0.00 | 0.00 | 85 | 1018.8 |
| 20260502111526 | -1 | 27 | 0.0 | 0.0 | 0.00 | 0.00 | 0.00 | 85 | 1018.8 |
| 20260502111007 | -1 | 27 | 0.0 | 0.0 | 0.00 | 0.00 | 0.00 | 85 | 1018.8 |
| 20260502110505 | -1 | 27 | 0.0 | 0.0 | 0.00 | 0.00 | 0.00 | 84 | 1018.8 |
| 20260502110022 | -1 | 27 | 0.0 | 0.0 | 0.00 | 0.00 | 0.00 | 85 | 1018.8 |
| 20260502105506 | -1 | 27 | 0.0 | 0.0 | 0.00 | 0.00 | 0.00 | 85 | 1018.8 |
| 20260502105006 | -1 | 27 | 0.0 | 0.0 | 0.00 | 0.00 | 0.00 | 85 | 1018.8 |
| 20260502104527 | -1 | 27 | 0.0 | 0.0 | 0.00 | 0.00 | 0.00 | 85 | 1018.7 |
| 20260502104008 | -1 | 27 | 0.0 | 0.0 | 0.00 | 0.00 | 0.00 | 86 | 1018.7 |
| 20260502103510 | -1 | 27 | 0.0 | 0.0 | 0.00 | 0.00 | 0.00 | 86 | 1018.7 |
| 20260502103031 | -1 | 27 | 0.0 | 0.0 | 0.00 | 0.00 | 0.00 | 85 | 1018.7 |
| 20260502102510 | -1 | 27 | 0.0 | 0.0 | 0.00 | 0.00 | 0.00 | 84 | 1018.7 |
| 20260502102026 | -1 | 27 | 0.0 | 0.0 | 0.00 | 0.00 | 0.00 | 85 | 1018.8 |
| 20260502101525 | -1 | 27 | 0.0 | 0.0 | 0.00 | 0.00 | 0.00 | 84 | 1018.7 |
| 20260502101015 | -1 | 27 | 0.0 | 0.0 | 0.00 | 0.00 | 0.00 | 83 | 1018.7 |
| 20260502100510 | -1 | 27 | 0.0 | 0.0 | 0.00 | 0.00 | 0.00 | 83 | 1018.7 |
| 20260502091512 | -1 | 23 | 0.0 | 0.0 | 0.00 | 0.00 | 0.00 | 85 | 1018.8 |
| 20260502091003 | -1 | 23 | 0.0 | 0.0 | 0.00 | 0.00 | 0.00 | 86 | 1018.8 |
| 20260502090502 | -1 | 23 | 0.0 | 0.0 | 0.00 | 0.00 | 0.00 | 86 | 1018.8 |
| 20260502071530 | 0 | 23 | 0.0 | 0.0 | 0.00 | 0.00 | 0.00 | 83 | 1018.9 |
| 20260502071010 | 0 | 23 | 0.0 | 0.0 | 0.00 | 0.00 | 0.00 | 83 | 1018.8 |
| 20260502070504 | 0 | 23 | 0.0 | 0.0 | 0.00 | 0.00 | 0.00 | 82 | 1018.9 |
| 20260502070017 | 0 | 23 | 0.0 | 0.0 | 0.00 | 0.00 | 0.00 | 82 | 1018.9 |
| 20260502065504 | 0 | 23 | 0.0 | 0.0 | 0.00 | 0.00 | 0.00 | 82 | 1019.0 |
| 20260502065007 | 0 | 23 | 0.0 | 0.0 | 0.00 | 0.00 | 0.00 | 83 | 1019.0 |
| 20260502064510 | 0 | 23 | 0.0 | 0.0 | 0.00 | 0.00 | 0.00 | 83 | 1019.0 |
| 20260502064004 | 0 | 23 | 0.0 | 0.0 | 0.00 | 0.00 | 0.00 | 84 | 1019.0 |
| 20260502063504 | 0 | 23 | 0.0 | 0.0 | 0.00 | 0.00 | 0.00 | 85 | 1019.0 |
| 20260502062508 | 0 | 23 | 0.0 | 0.0 | 0.00 | 0.00 | 0.00 | 84 | 1019.1 |
| 20260502062008 | 0 | 23 | 0.0 | 0.0 | 0.00 | 0.00 | 0.00 | 84 | 1019.1 |
| 20260502060509 | 0 | 23 | 0.0 | 0.0 | 0.00 | 0.00 | 0.00 | 81 | 1019.1 |
| 20260502055507 | 0 | 23 | 0.0 | 0.0 | 0.00 | 0.00 | 0.00 | 80 | 1019.1 |
| 20260502055004 | 0 | 23 | 0.0 | 0.0 | 0.00 | 0.00 | 0.00 | 80 | 1019.1 |
| 20260502054515 | 0 | 23 | 0.0 | 0.0 | 0.00 | 0.00 | 0.00 | 79 | 1019.1 |
| 20260502054003 | 0 | 23 | 0.0 | 0.0 | 0.00 | 0.00 | 0.00 | 78 | 1019.0 |
| 20260502053506 | 0 | 23 | 0.0 | 0.0 | 0.00 | 0.00 | 0.00 | 77 | 1019.0 |
| 20260502053016 | 0 | 23 | 0.0 | 0.0 | 0.00 | 0.00 | 0.00 | 77 | 1019.0 |
| 20260502052504 | 0 | 23 | 0.0 | 0.0 | 0.00 | 0.00 | 0.00 | 77 | 1019.0 |
| 20260502052004 | 0 | 23 | 0.0 | 0.0 | 0.00 | 0.00 | 0.00 | 76 | 1018.9 |
| 20260502051523 | 0 | 23 | 0.0 | 0.0 | 0.00 | 0.00 | 0.00 | 74 | 1018.9 |
| 20260502051006 | 0 | 23 | 0.0 | 0.0 | 0.00 | 0.00 | 0.00 | 74 | 1018.9 |
| 20260502050507 | 0 | 23 | 0.0 | 0.0 | 0.00 | 0.00 | 0.00 | 73 | 1018.9 |
| 20260502050032 | 0 | 23 | 0.0 | 0.0 | 0.00 | 0.00 | 0.00 | 73 | 1018.9 |
| 20260502045510 | 0 | 23 | 0.0 | 0.0 | 0.00 | 0.00 | 0.00 | 72 | 1018.9 |
| 20260502045008 | 0 | 23 | 0.0 | 0.0 | 0.00 | 0.00 | 0.00 | 71 | 1018.9 |
| 20260502044523 | 1 | 23 | 0.0 | 0.0 | 0.00 | 0.00 | 0.00 | 70 | 1018.9 |
| 20260502044007 | 1 | 23 | 0.0 | 0.0 | 0.00 | 0.00 | 0.00 | 70 | 1018.9 |
| 20260502043507 | 1 | 23 | 0.0 | 0.0 | 0.00 | 0.00 | 0.00 | 70 | 1018.9 |
| 20260502042504 | 1 | 23 | 0.0 | 0.0 | 0.00 | 0.00 | 0.00 | 66 | 1018.9 |
| 20260502042005 | 1 | 23 | 0.0 | 0.0 | 0.00 | 0.00 | 0.00 | 66 | 1018.8 |
| 20260502041528 | 1 | 23 | 0.0 | 0.0 | 0.00 | 0.00 | 0.00 | 67 | 1018.8 |
| 20260502041004 | 1 | 23 | 0.0 | 0.0 | 0.00 | 0.00 | 0.00 | 66 | 1018.8 |
| 20260502040505 | 1 | 23 | 0.0 | 0.0 | 0.00 | 0.00 | 0.00 | 66 | 1018.8 |
| 20260502040026 | 1 | 23 | 0.0 | 0.0 | 0.00 | 0.00 | 0.00 | 66 | 1018.8 |
| 20260502035506 | 2 | 23 | 0.0 | 0.0 | 0.00 | 0.00 | 0.00 | 65 | 1018.8 |
| 20260502035009 | 2 | 23 | 0.0 | 0.0 | 0.00 | 0.00 | 0.00 | 64 | 1018.7 |
| 20260502034523 | 2 | 23 | 0.0 | 0.0 | 0.00 | 0.00 | 0.00 | 64 | 1018.7 |
| 20260502034008 | 2 | 23 | 0.0 | 0.0 | 0.00 | 0.00 | 0.00 | 63 | 1018.8 |
| 20260502033509 | 2 | 23 | 0.0 | 0.0 | 0.00 | 0.00 | 0.00 | 61 | 1018.8 |
| 20260502033031 | 2 | 23 | 0.0 | 0.0 | 0.00 | 0.00 | 0.00 | 61 | 1018.8 |
| 20260502032507 | 2 | 23 | 0.0 | 0.0 | 0.00 | 0.00 | 0.00 | 61 | 1018.8 |
| 20260502032012 | 3 | 23 | 0.0 | 0.0 | 0.00 | 0.00 | 0.00 | 59 | 1018.8 |
| 20260502031526 | 3 | 23 | 0.0 | 0.0 | 0.00 | 0.00 | 0.00 | 59 | 1018.9 |
| 20260502031005 | 3 | 23 | 0.0 | 0.0 | 0.00 | 0.00 | 0.00 | 58 | 1018.8 |
| 20260502030508 | 3 | 23 | 0.0 | 0.0 | 0.00 | 0.00 | 0.00 | 58 | 1018.8 |
| 20260502030022 | 3 | 23 | 0.0 | 0.0 | 0.00 | 0.00 | 0.00 | 57 | 1018.7 |
| 20260502025505 | 3 | 23 | 0.0 | 0.0 | 0.00 | 0.00 | 0.00 | 56 | 1018.7 |
| 20260502025007 | 4 | 23 | 0.0 | 0.0 | 0.00 | 0.00 | 0.00 | 56 | 1018.7 |
| 20260502024527 | 4 | 23 | 0.0 | 0.0 | 0.00 | 0.00 | 0.00 | 55 | 1018.7 |
| 20260502024009 | 5 | 23 | 0.0 | 0.0 | 0.00 | 0.00 | 0.00 | 52 | 1018.7 |
| 20260502023507 | 5 | 23 | 0.0 | 0.0 | 0.00 | 0.00 | 0.00 | 52 | 1018.7 |
| 20260502023024 | 5 | 23 | 0.0 | 0.0 | 0.00 | 0.00 | 0.00 | 52 | 1018.7 |
| 20260502022508 | 5 | 23 | 0.0 | 0.0 | 0.00 | 0.00 | 0.00 | 50 | 1018.7 |
| 20260502022009 | 6 | 23 | 0.0 | 0.0 | 0.00 | 0.00 | 0.00 | 48 | 1018.6 |
| 20260502021525 | 6 | 23 | 0.0 | 0.0 | 0.00 | 0.00 | 0.00 | 49 | 1018.6 |
| 20260502021007 | 6 | 23 | 0.0 | 0.0 | 0.00 | 0.00 | 0.00 | 47 | 1018.6 |
| 20260502020507 | 6 | 23 | 0.0 | 0.0 | 0.00 | 0.00 | 0.00 | 46 | 1018.6 |
| 20260502020028 | 7 | 23 | 0.0 | 0.0 | 0.00 | 0.00 | 0.00 | 45 | 1018.5 |
| 20260502015505 | 7 | 23 | 0.0 | 1.6 | 0.00 | 0.00 | 0.00 | 44 | 1018.5 |
| 20260502015005 | 7 | 23 | 0.0 | 1.6 | 0.00 | 0.00 | 0.00 | 44 | 1018.5 |
| 20260502014529 | 7 | 23 | 0.0 | 1.6 | 0.00 | 0.00 | 0.00 | 42 | 1018.4 |
| 20260502014005 | 8 | 23 | 0.0 | 1.6 | 0.00 | 0.00 | 0.00 | 42 | 1018.3 |
| 20260502013506 | 8 | 27 | 0.0 | 3.2 | 0.00 | 0.00 | 0.00 | 40 | 1018.3 |
| 20260502013023 | 8 | 16 | 0.0 | 4.8 | 0.00 | 0.00 | 0.00 | 40 | 1018.3 |
| 20260502012513 | 8 | 360 | 0.0 | 4.8 | 0.00 | 0.00 | 0.00 | 40 | 1018.2 |
| 20260502012007 | 8 | 9 | 0.0 | 4.8 | 0.00 | 0.00 | 0.00 | 39 | 1018.2 |
| 20260502011522 | 8 | 8 | 0.0 | 1.6 | 0.00 | 0.00 | 0.00 | 39 | 1018.2 |
| 20260502011010 | 8 | 49 | 0.0 | 4.8 | 0.00 | 0.00 | 0.00 | 39 | 1018.2 |
| 20260502010507 | 9 | 53 | 0.0 | 6.4 | 0.00 | 0.00 | 0.00 | 38 | 1018.2 |
| 20260502010030 | 9 | 18 | 0.0 | 6.4 | 0.00 | 0.00 | 0.00 | 37 | 1018.1 |
| 20260502005508 | 9 | 33 | 1.6 | 6.4 | 0.00 | 0.00 | 0.00 | 37 | 1018.1 |
| 20260502005011 | 10 | 41 | 1.6 | 6.4 | 0.00 | 0.00 | 0.00 | 36 | 1018.1 |
| 20260502004545 | 10 | 34 | 1.6 | 9.7 | 0.00 | 0.00 | 0.00 | 35 | 1018.0 |
| 20260502004008 | 10 | 32 | 1.6 | 9.7 | 0.00 | 0.00 | 0.00 | 34 | 1018.0 |
| 20260502003508 | 11 | 350 | 3.2 | 9.7 | 0.00 | 0.00 | 0.00 | 33 | 1018.0 |
| 20260502003017 | 11 | 30 | 3.2 | 12.9 | 0.00 | 0.00 | 0.00 | 34 | 1017.9 |
| 20260502002510 | 11 | 20 | 4.8 | 17.7 | 0.00 | 0.00 | 0.00 | 33 | 1017.9 |
| 20260502002003 | 11 | 60 | 6.4 | 17.7 | 0.00 | 0.00 | 0.00 | 32 | 1017.9 |
| 20260502001508 | 11 | 60 | 4.8 | 11.3 | 0.00 | 0.00 | 0.00 | 33 | 1017.9 |
| 20260502001004 | 11 | 55 | 6.4 | 12.9 | 0.00 | 0.00 | 0.00 | 33 | 1017.8 |
| 20260502000503 | 11 | 124 | 4.8 | 12.9 | 0.00 | 0.00 | 0.00 | 32 | 1017.9 |
| 20260502000006 | 11 | 17 | 0.0 | 4.8 | 0.00 | 0.00 | 0.00 | 35 | 1017.8 |
| 20260501235504 | 11 | 332 | 1.6 | 6.4 | 0.00 | 0.00 | 0.00 | 35 | 1017.9 |
| 20260501235004 | 10 | 25 | 1.6 | 6.4 | 0.00 | 0.00 | 0.00 | 34 | 1017.8 |
| 20260501234509 | 10 | 8 | 0.0 | 9.7 | 0.00 | 0.00 | 0.00 | 34 | 1017.8 |
| 20260501234009 | 10 | 26 | 3.2 | 11.3 | 0.00 | 0.00 | 0.00 | 32 | 1017.7 |
| 20260501233505 | 11 | 115 | 3.2 | 16.1 | 0.00 | 0.00 | 0.00 | 32 | 1017.7 |
| 20260501233012 | 11 | 89 | 1.6 | 16.1 | 0.00 | 0.00 | 0.00 | 33 | 1017.7 |
| 20260501232506 | 11 | 76 | 3.2 | 19.3 | 0.00 | 0.00 | 0.00 | 33 | 1017.7 |
| 20260501232010 | 11 | 43 | 9.7 | 19.3 | 0.00 | 0.00 | 0.00 | 31 | 1017.7 |
| 20260501231520 | 11 | 53 | 6.4 | 17.7 | 0.00 | 0.00 | 0.00 | 33 | 1017.7 |
| 20260501231006 | 11 | 65 | 4.8 | 16.1 | 0.00 | 0.00 | 0.00 | 32 | 1017.7 |
| 20260501230506 | 12 | 317 | 3.2 | 16.1 | 0.00 | 0.00 | 0.00 | 31 | 1017.7 |
| 20260501230004 | 12 | 104 | 1.6 | 9.7 | 0.00 | 0.00 | 0.00 | 34 | 1017.6 |
| 20260501225504 | 12 | 255 | 1.6 | 9.7 | 0.00 | 0.00 | 0.00 | 33 | 1017.6 |
| 20260501225003 | 12 | 144 | 0.0 | 11.3 | 0.00 | 0.00 | 0.00 | 34 | 1017.6 |